Weather History for Cross City, FL

Change the Weather History Date:

Saturday, April 20, 2013

  Actual Average Record
Temperature  
Mean Temperature 55 °F 68 °F  
Max Temperature 63 °F 81 °F 91 °F (2006)
Min Temperature 46 °F 54 °F 45 °F (1999)
Degree Days  
Heating Degree Days 10 1  
Month to date heating degree days 21 41  
Since 1 July heating degree days 1114 1296  
Cooling Degree Days 0 4  
Month to date cooling degree days 114 62  
Year to date cooling degree days 232 136  
Growing Degree Days 6 (Base 50)    
Moisture  
Dew Point 49 °F    
Average Humidity 81    
Maximum Humidity 93    
Minimum Humidity 60    
Precipitation  
Precipitation 1.17 in 0.07 in 1.17 in (2013)
Month to date precipitation 2.77 2.35  
Year to date precipitation 7.49 13.87  
Sea Level Pressure  
Sea Level Pressure 30.12 in    
Wind  
Wind Speed 6 mph (NNE)    
Max Wind Speed 15 mph    
Max Gust Speed 21 mph    
T = Trace of Precipitation, MM = Missing Value Source: NWS Daily Summary

Daily Weather History Graph

Daily Weather History Graph

Search for Another Location

Airport:

Trip Planner

Search our weather history database for the weather conditions in past years. The results will help you decide how hot, cold, wet, or windy it might be!

Date:

Astronomy

Apr. 20, 2013 Rise Set
Actual Time 7:00 AM EDT 8:02 PM EDT
Civil Twilight 6:35 AM EDT 8:27 PM EDT
Nautical Twilight 6:06 AM EDT 8:56 PM EDT
Astronomical Twilight 5:36 AM EDT 9:26 PM EDT
Moon 3:07 PM EDT (4/20) 3:24 AM EDT (4/20)
Length of Visible Light 13h 51m
Length of Day
13h 02m
Waxing Gibbous, 71% of the Moon is Illuminated
Apr 20
Waxing Gibbous
Apr 25
Full
May 2
Last Quarter
May 9
New
May 18
First Quarter

Hourly Weather History & Observations

Time (EDT) Temp. Dew Point Humidity Pressure Visibility Wind Dir Wind Speed Gust Speed Precip Events Conditions
12:53 AM 64.0 °F 60.1 °F 87% 30.04 in - NNW 4.6 mph - N/A   Unknown
1:53 AM 59.0 °F 55.9 °F 90% 30.07 in - NNW 9.2 mph - 0.21 in   Unknown
2:53 AM 55.9 °F 52.0 °F 87% 30.05 in - NNW 10.4 mph - 0.02 in   Unknown
3:53 AM 55.0 °F 53.1 °F 93% 30.06 in - North 5.8 mph - 0.01 in   Unknown
4:53 AM 51.1 °F 48.9 °F 92% 30.09 in - North 8.1 mph 17.3 mph 0.21 in   Unknown
5:53 AM 50.0 °F 48.0 °F 93% 30.07 in - NNE 6.9 mph - 0.15 in   Unknown
6:53 AM 51.1 °F 48.9 °F 92% 30.09 in - NNE 10.4 mph - 0.10 in   Unknown
7:53 AM 50.0 °F 46.9 °F 89% 30.13 in - NNE 6.9 mph - 0.27 in   Unknown
8:53 AM 50.0 °F 48.9 °F 96% 30.16 in - Calm Calm - 0.08 in   Unknown
9:53 AM 51.1 °F 48.9 °F 92% 30.14 in - ENE 3.5 mph - 0.10 in   Unknown
10:53 AM 53.1 °F 48.0 °F 83% 30.17 in - NNE 8.1 mph - 0.03 in   Unknown
11:53 AM 53.1 °F 48.9 °F 86% 30.17 in - NNE 8.1 mph - N/A   Unknown
12:53 PM 53.1 °F 46.0 °F 77% 30.15 in - NNE 8.1 mph - N/A   Unknown
1:53 PM 55.0 °F 48.0 °F 77% 30.15 in - North 9.2 mph - N/A   Unknown
2:53 PM 57.9 °F 48.9 °F 72% 30.13 in - NE 9.2 mph - N/A   Unknown
3:53 PM 61.0 °F 48.0 °F 62% 30.12 in - ENE 6.9 mph - N/A   Unknown
4:53 PM 60.1 °F 46.0 °F 60% 30.10 in - NE 6.9 mph - N/A   Unknown
5:53 PM 62.1 °F 48.0 °F 60% 30.10 in - NE 5.8 mph - N/A   Unknown
6:53 PM 62.1 °F 48.0 °F 60% 30.11 in - Variable 5.8 mph - N/A   Unknown
7:53 PM 59.0 °F 48.0 °F 67% 30.12 in - NE 3.5 mph - N/A   Unknown
8:53 PM 54.0 °F 48.0 °F 80% 30.14 in - Calm Calm - N/A   Unknown
9:53 PM 51.1 °F 46.9 °F 86% 30.18 in - Calm Calm - N/A   Unknown
10:53 PM 48.9 °F 46.0 °F 90% 30.21 in - Calm Calm - N/A   Unknown
11:53 PM 46.9 °F 45.0 °F 93% 30.20 in - Calm Calm - N/A   Unknown